Home > Weather > Jaipur > Past weeks

Flag for India Past Weather in Jaipur, Rajasthan, India — Yesterday and Last 2 Weeks

Now
88 °F

Partly cloudy.


Feels Like: 94 °F
Forecast: 85 / 100 °F
Wind: 8 mph from Northwest

Location: Jaipur / Sanganer

Current Time: Jun 26, 2016 at 1:13:32 AM

Latest Report: Jun 26, 2016 at 12:00 AM


Visibility: 2 mi

Pressure: 29.65 "Hg

Humidity: 59%

Dew Point: 72 °F

Location of JaipurLocation

Past Weather in Jaipur — Graph

°F

Jaipur Temperature Yesterday

Maximum temperature yesterday: 104 °F (at 3:00 PM)
Minimum temperature yesterday: 88 °F (at 9:00 PM)
Average temperature yesterday: 94 °F

High & Low Weather Summary for the Past Weeks

 TemperatureHumidityPressure
High108 °F (Jun 17, 4:30 PM)89% (Jun 21, 9:00 PM)29.74 "Hg (Jun 21, 9:00 PM)
Low81 °F (Jun 21, 5:30 PM)19% (Jun 17, 5:00 PM)29.45 "Hg (Jun 15, 4:00 PM)
Average94 °F43%29.59 "Hg
* Reported Jun 10 11:30 PM — Jun 25 11:00 PM, Jaipur, Weather by CustomWeather, © 2016

Note: Actual official high and low records may vary slightly from our data, if they occured in-between our weather recording intervals... More about our weather records

Advertising

Jaipur Weather History for the Previous 24 Hours

Scroll right to see more
 ConditionsComfort  
Time TempWeatherWind HumidityBarometerVisibility
11:00 PM
Sat, Jun 25
88 °FPartly cloudy.6 mph59%29.65 "Hg2 mi
10:30 PM88 °FPartly cloudy.5 mph59%29.65 "Hg1 mi
10:00 PM88 °FPartly cloudy.6 mph62%29.65 "Hg1 mi
9:00 PM88 °FPartly cloudy.9 mph62%29.62 "Hg1 mi
8:00 PM91 °FPartly cloudy.6 mph49%29.62 "Hg2 mi
7:00 PM93 °FBroken clouds.9 mph47%29.59 "Hg2 mi
6:30 PM93 °FBroken clouds.7 mph44%29.56 "Hg2 mi
5:30 PM91 °FBroken clouds.15 mph46%29.56 "Hg2 mi
5:00 PM97 °FBroken clouds.16 mph39%29.56 "Hg2 mi
4:30 PM97 °FScattered clouds.13 mph42%29.56 "Hg2 mi
4:00 PM104 °FScattered clouds.5 mph31%29.56 "Hg2 mi
3:30 PM102 °FScattered clouds.2 mph35%29.56 "Hg2 mi
3:00 PM104 °FScattered clouds.1 mph31%29.56 "Hg2 mi
2:00 PM102 °FScattered clouds.5 mph33%29.59 "Hg2 mi
1:30 PM100 °FScattered clouds.5 mph35%29.62 "Hg2 mi
1:00 PM100 °FScattered clouds.7 mph37%29.62 "Hg2 mi
12:00 PM99 °FScattered clouds.8 mph37%29.65 "Hg3 mi
11:30 AM99 °FScattered clouds.9 mph37%29.65 "Hg3 mi
10:30 AM97 °FScattered clouds.8 mph42%29.65 "Hg3 mi
10:00 AM95 °FScattered clouds.7 mph44%29.68 "Hg3 mi
9:30 AM95 °FScattered clouds.8 mph44%29.68 "Hg3 mi
9:00 AM93 °FScattered clouds.8 mph47%29.68 "Hg3 mi
8:30 AM91 °FScattered clouds.8 mph49%29.65 "Hg3 mi
7:30 AM90 °FScattered clouds.7 mph52%29.65 "Hg2 mi
7:00 AM90 °FScattered clouds.6 mph52%29.65 "Hg2 mi
6:30 AM90 °FScattered clouds.6 mph52%29.62 "Hg2 mi
5:30 AM90 °FPassing clouds.6 mph52%29.62 "Hg2 mi
4:00 AM90 °FPassing clouds.3 mph52%29.59 "Hg2 mi
3:00 AM90 °FPassing clouds.7 mph52%29.59 "Hg2 mi
2:00 AM90 °FPassing clouds.8 mph49%29.56 "Hg2 mi
1:00 AM90 °FPassing clouds.7 mph49%29.59 "Hg2 mi
Weather by CustomWeather, © 2016

See weather overviewHow to use our weather pages